| time (UTC) | temp F | wind direction | speed knots | gust knots | rain 1hr in | rain 24hr in | rain mn in | humidity % | barometer mb |
| 20260505035549 | 66 | 167 | 3.5 | 5.2 | 0.00 | 0.00 | 0.00 | 71 | 1006.9 |
| 20260505034550 | 67 | 0 | 3.5 | 7.0 | 0.00 | 0.00 | 0.00 | 71 | 1007.2 |
| 20260505034028 | 67 | 163 | 3.5 | 7.0 | 0.00 | 0.00 | 0.00 | 70 | 1007.2 |
| 20260505032550 | 67 | 170 | 4.3 | 7.8 | 0.00 | 0.00 | 0.00 | 71 | 1007.3 |
| 20260505031548 | 67 | 176 | 4.3 | 7.8 | 0.00 | 0.00 | 0.00 | 70 | 1007.2 |
| 20260505030549 | 67 | 160 | 4.3 | 7.0 | 0.00 | 0.00 | 0.00 | 70 | 1007.3 |
| 20260505025543 | 67 | 174 | 4.3 | 6.1 | 0.00 | 0.00 | 0.00 | 70 | 1007.6 |
| 20260505024542 | 67 | 173 | 4.3 | 6.1 | 0.00 | 0.00 | 0.00 | 70 | 1007.3 |
| 20260505023541 | 68 | 183 | 5.2 | 9.6 | 0.00 | 0.00 | 0.00 | 69 | 1007.3 |
| 20260505022542 | 68 | 166 | 5.2 | 8.7 | 0.00 | 0.00 | 0.00 | 69 | 1007.0 |
| 20260505021543 | 67 | 169 | 4.3 | 5.2 | 0.00 | 0.00 | 0.00 | 69 | 1006.8 |
| 20260505020543 | 68 | 174 | 4.3 | 7.8 | 0.00 | 0.00 | 0.00 | 69 | 1006.7 |
| 20260505015543 | 68 | 178 | 4.3 | 7.0 | 0.00 | 0.00 | 0.00 | 68 | 1006.6 |
| 20260505015019 | 68 | 202 | 3.5 | 6.1 | 0.00 | 0.00 | 0.00 | 67 | 1006.6 |
| 20260505013543 | 69 | 173 | 3.5 | 5.2 | 0.00 | 0.00 | 0.00 | 67 | 1006.4 |
| 20260505012536 | 69 | 188 | 4.3 | 6.1 | 0.00 | 0.00 | 0.00 | 66 | 1006.4 |
| 20260505011536 | 70 | 182 | 5.2 | 7.8 | 0.00 | 0.00 | 0.00 | 65 | 1006.2 |
| 20260505010535 | 70 | 180 | 5.2 | 9.6 | 0.00 | 0.00 | 0.00 | 64 | 1006.1 |
| 20260505005535 | 71 | 179 | 5.2 | 8.7 | 0.00 | 0.00 | 0.00 | 62 | 1006.0 |
| 20260505004539 | 71 | 157 | 6.1 | 10.4 | 0.00 | 0.00 | 0.00 | 62 | 1006.0 |
| 20260505003531 | 71 | 160 | 6.1 | 13.0 | 0.00 | 0.00 | 0.00 | 62 | 1006.0 |
| 20260505002531 | 72 | 174 | 7.0 | 12.2 | 0.00 | 0.00 | 0.00 | 61 | 1006.0 |
| 20260505001530 | 72 | 167 | 7.0 | 10.4 | 0.00 | 0.00 | 0.00 | 60 | 1005.9 |
| 20260505000530 | 72 | 163 | 7.8 | 16.5 | 0.00 | 0.00 | 0.00 | 61 | 1006.0 |
| 20260504235529 | 73 | 185 | 7.8 | 13.9 | 0.00 | 0.00 | 0.00 | 59 | 1006.0 |
| 20260504234532 | 73 | 165 | 8.7 | 16.5 | 0.00 | 0.00 | 0.00 | 59 | 1006.0 |
| 20260504233527 | 73 | 180 | 11.3 | 18.2 | 0.00 | 0.00 | 0.00 | 57 | 1006.1 |
| 20260504232527 | 74 | 178 | 10.4 | 26.9 | 0.00 | 0.00 | 0.00 | 56 | 1006.1 |
| 20260504231525 | 74 | 169 | 11.3 | 20.0 | 0.00 | 0.00 | 0.00 | 56 | 1006.2 |
| 20260504230527 | 74 | 155 | 11.3 | 22.6 | 0.00 | 0.00 | 0.00 | 55 | 1006.3 |
| 20260504225526 | 75 | 178 | 10.4 | 19.1 | 0.00 | 0.00 | 0.00 | 55 | 1006.3 |
| 20260504225010 | 75 | 160 | 10.4 | 20.0 | 0.00 | 0.00 | 0.00 | 54 | 1006.1 |
| 20260504223525 | 76 | 182 | 11.3 | 21.7 | 0.00 | 0.00 | 0.00 | 54 | 1006.2 |
| 20260504222527 | 76 | 169 | 10.4 | 19.1 | 0.00 | 0.00 | 0.00 | 53 | 1006.0 |
| 20260504221523 | 76 | 165 | 9.6 | 20.0 | 0.00 | 0.00 | 0.00 | 55 | 1005.9 |
| 20260504220528 | 76 | 191 | 11.3 | 21.7 | 0.00 | 0.00 | 0.00 | 54 | 1006.0 |
| 20260504220009 | 76 | 176 | 13.0 | 22.6 | 0.00 | 0.00 | 0.00 | 51 | 1006.2 |
| 20260504214519 | 76 | 144 | 12.2 | 22.6 | 0.00 | 0.00 | 0.00 | 54 | 1006.2 |
| 20260504213519 | 77 | 173 | 12.2 | 20.9 | 0.00 | 0.00 | 0.00 | 56 | 1006.3 |
| 20260504212517 | 77 | 182 | 11.3 | 19.1 | 0.00 | 0.00 | 0.00 | 53 | 1006.4 |
| 20260504211516 | 76 | 154 | 13.9 | 22.6 | 0.00 | 0.00 | 0.00 | 53 | 1006.5 |
| 20260504210516 | 76 | 184 | 13.0 | 25.2 | 0.00 | 0.00 | 0.00 | 53 | 1006.7 |
| 20260504205515 | 76 | 184 | 13.9 | 26.1 | 0.00 | 0.00 | 0.00 | 53 | 1006.9 |
| 20260504204959 | 76 | 209 | 13.9 | 25.2 | 0.00 | 0.00 | 0.00 | 51 | 1007.2 |
| 20260504203519 | 77 | 203 | 12.2 | 23.5 | 0.00 | 0.00 | 0.00 | 53 | 1007.4 |
| 20260504202955 | 77 | 201 | 13.0 | 24.3 | 0.00 | 0.00 | 0.00 | 51 | 1007.4 |
| 20260504201513 | 77 | 193 | 11.3 | 23.5 | 0.00 | 0.00 | 0.00 | 52 | 1007.8 |
| 20260504200510 | 77 | 159 | 13.0 | 24.3 | 0.00 | 0.00 | 0.00 | 52 | 1007.8 |
| 20260504195509 | 77 | 182 | 13.0 | 20.9 | 0.00 | 0.00 | 0.00 | 52 | 1007.9 |
| 20260504195004 | 76 | 168 | 12.2 | 22.6 | 0.00 | 0.00 | 0.00 | 51 | 1008.0 |
| 20260504193509 | 77 | 197 | 11.3 | 19.1 | 0.00 | 0.00 | 0.00 | 51 | 1008.0 |
| 20260504192512 | 76 | 163 | 14.8 | 25.2 | 0.00 | 0.00 | 0.00 | 56 | 1008.2 |
| 20260504191509 | 76 | 163 | 12.2 | 24.3 | 0.00 | 0.00 | 0.00 | 52 | 1008.2 |
| 20260504190512 | 76 | 175 | 12.2 | 23.5 | 0.00 | 0.00 | 0.00 | 53 | 1008.4 |
| 20260504185507 | 76 | 200 | 13.0 | 24.3 | 0.00 | 0.00 | 0.00 | 53 | 1008.3 |
| 20260504184507 | 76 | 166 | 13.9 | 25.2 | 0.00 | 0.00 | 0.00 | 53 | 1008.4 |
| 20260504183506 | 75 | 167 | 14.8 | 27.8 | 0.00 | 0.00 | 0.00 | 53 | 1008.6 |
| 20260504182508 | 76 | 176 | 13.9 | 23.5 | 0.00 | 0.00 | 0.00 | 54 | 1008.8 |
| 20260504181517 | 76 | 185 | 13.0 | 24.3 | 0.00 | 0.00 | 0.00 | 57 | 1008.8 |
| 20260504180509 | 76 | 178 | 11.3 | 20.9 | 0.00 | 0.00 | 0.00 | 55 | 1009.0 |
| 20260504175507 | 75 | 228 | 13.0 | 25.2 | 0.00 | 0.00 | 0.00 | 56 | 1009.0 |
| 20260504174505 | 75 | 184 | 13.0 | 20.9 | 0.00 | 0.00 | 0.00 | 55 | 1009.2 |
| 20260504173503 | 74 | 182 | 13.9 | 22.6 | 0.00 | 0.00 | 0.00 | 57 | 1009.5 |
| 20260504172500 | 74 | 163 | 12.2 | 20.0 | 0.00 | 0.00 | 0.00 | 57 | 1009.6 |
| 20260504171504 | 74 | 185 | 13.0 | 24.3 | 0.00 | 0.00 | 0.00 | 57 | 1009.4 |
| 20260504170503 | 73 | 169 | 14.8 | 21.7 | 0.00 | 0.00 | 0.00 | 56 | 1009.5 |
| 20260504150501 | 70 | 194 | 10.4 | 22.6 | 0.00 | 0.00 | 0.00 | 55 | 1010.4 |
| 20260504140502 | 67 | 193 | 8.7 | 18.2 | 0.00 | 0.00 | 0.00 | 59 | 1010.8 |
| 20260504130501 | 63 | 159 | 5.2 | 9.6 | 0.00 | 0.00 | 0.00 | 65 | 1011.2 |
| 20260504110450 | 59 | 200 | 7.0 | 12.2 | 0.00 | 0.00 | 0.00 | 68 | 1010.8 |
| 20260504100448 | 60 | 198 | 5.2 | 10.4 | 0.00 | 0.00 | 0.00 | 65 | 1011.1 |
| 20260504081439 | 63 | 211 | 6.1 | 11.3 | 0.00 | 0.00 | 0.00 | 59 | 1011.6 |
| 20260504080439 | 64 | 178 | 6.1 | 11.3 | 0.00 | 0.00 | 0.00 | 59 | 1011.7 |
| 20260504050438 | 67 | 198 | 5.2 | 10.4 | 0.00 | 0.00 | 0.00 | 56 | 1013.1 |
| 20260504045436 | 67 | 175 | 5.2 | 8.7 | 0.00 | 0.00 | 0.00 | 56 | 1012.9 |
| 20260504044436 | 67 | 225 | 5.2 | 8.7 | 0.00 | 0.00 | 0.00 | 56 | 1013.1 |
| 20260504043437 | 68 | 175 | 5.2 | 10.4 | 0.00 | 0.00 | 0.00 | 54 | 1013.2 |
| 20260504042436 | 68 | 207 | 5.2 | 10.4 | 0.00 | 0.00 | 0.00 | 54 | 1013.4 |
| 20260504041435 | 68 | 197 | 5.2 | 11.3 | 0.00 | 0.00 | 0.00 | 54 | 1013.3 |